AirNav   Air Wisconsin pilot careers
 
 382 users online  

FA40 Hidden Lake Airport
New Port Richey, Florida, USA

GOING TO NEW PORT RICHEY?


FAA INFORMATION EFFECTIVE 07 DECEMBER 2017

Location

FAA Identifier: FA40
Lat/Long: 28-16-59.1000N / 082-38-26.5200W
28-16.985000N / 082-38.442000W
28.2830833 / -82.6407000
(estimated)
Elevation: 30 ft. / 9 m (estimated)
Variation: 02W (1985)
From city: 4 miles NE of NEW PORT RICHEY, FL
Time zone: UTC -5 (UTC -4 during Daylight Saving Time)
Zip code: 34654

Airport Operations

Airport use: Private use. Permission required prior to landing
Activation date: 08/1971
Control tower: no
ARTCC: MIAMI CENTER
FSS: SAINT PETERSBURG FLIGHT SERVICE STATION
Attendance: UNATNDD
Wind indicator: yes
Segmented circle: yes
Lights: ACTVT LIRL RY 05/23 - 123.0.
Beacon: white-green (lighted land airport)
Operates sunset to sunrise.
Landing fee: yes

Airport Communications

UNICOM: 123.0
WX ASOS at BKV (15 nm NE): 134.725 (352-799-5881)
WX ASOS at TPA (19 nm S): PHONE 813-873-7228
WX AWOS-3P at CLW (19 nm S): 119.225 (727-449-2184)

Nearby radio navigation aids

VOR radial/distance  VOR name  Freq  Var
PIEr011/22.6ST PETERSBURG VORTAC116.4005W
LALr297/37.6LAKELAND VORTAC116.0001E

 
NDB name  Hdg/Dist  Freq  Var  ID
COSME338/13.336805WTP - .--.

Airport Services

Fuel available: 100LL
SELF SVC FUEL AVBL 24 HRS.
Airframe service: NONE
Powerplant service: NONE
Bottled oxygen: NONE
Bulk oxygen: NONE

Runway Information

Runway 5/23

Dimensions: 4425 x 50 ft. / 1349 x 15 m
Surface: asphalt, in good condition
Runway edge lights: low intensity
RUNWAY 5  RUNWAY 23
Traffic pattern: leftleft
Displaced threshold: 375 ft.650 ft.
Markings: basicbasic
Visual slope indicator: 2-light PAPI on left2-light PAPI on left
Obstructions: 45 ft. pline, lighted, 950 ft. from runwaytrees, 2000 ft. from runway

Airport Ownership and Management from official FAA records

Ownership: Privately-owned
Owner: AIRPORT INVESTORS INC
8901 AIRWAY BLVD
NEW PORT RICHEY, FL 34654
Phone 727-534-1998
Manager: STEVE CARPER
8901 AIRWAY BLVD
NEW PORT RICHEY, FL 34654
Phone 727-534-1998

Airport Operational Statistics

Aircraft based on the field: 83
Single engine airplanes: 75
Multi engine airplanes: 5
Helicopters: 3
    

Additional Remarks

OPNS LIMITED TO HEL & FIXED WING ACFT WEIGHING 10,000 POUNDS OR LESS.
PPR FOR NON-BASED ACFT. CTC ARPT MGMT 24 HRS IN ADVN AT 727-534-1998.
ANIMALS INVOF RY.

Instrument Procedures

There are no published instrument procedures at FA40.

Some nearby airports with instrument procedures:

KBKV - Brooksville-Tampa Bay Regional Airport (15 nm NE)
KTPA - Tampa International Airport (19 nm S)
KCLW - Clearwater Air Park (19 nm S)
KVDF - Tampa Executive Airport (22 nm SE)
KPIE - St Pete-Clearwater International Airport (23 nm S)
 
Loc | Ops | Rwys | IFR | FBO | Links
Com | Nav | Svcs | Stats | Notes


 
Area around FA40 (Hidden Lake Airport)
 
Road maps at: MapQuest Bing Google
 
Aerial photo
WARNING: Photo may not be current or correct
Aerial photo of FA40 (Hidden Lake Airport)
Do you have a better or more recent aerial photo of Hidden Lake Airport that you would like to share? If so, please send us your photo.

 
Sectional chart

 
Airport distance calculator
Flying to Hidden Lake Airport? Find the distance to fly.

From to FA40

Sunrise and sunset
Times for 14-Dec-2017
 Local
(UTC-5)
 Zulu
(UTC)
Morning civil twilight06:5011:50
Sunrise07:1512:15
Sunset17:3522:35
Evening civil twilight18:0123:01

Current date and time
Zulu (UTC)  14-Dec-2017 06:55:52
Local (UTC-5)  14-Dec-2017 01:55:52
 
METAR
KBKV 
15nm NE 
140553Z AUTO 00000KT 10SM CLR 06/03 A3004 RMK AO2 SLP171 T00560033 10061 20028 58010
KCLW 
19nm S 
140635Z AUTO 17004KT 10SM SCT037 10/08 A3004 RMK AO2
KTPA 
20nm S 
140553Z 15005KT 10SM CLR 13/09 A3005 RMK AO2 SLP174 T01330094 10133 20106 58012
KPIE 
22nm S 
140553Z AUTO 17005KT 10SM FEW036 10/09 A3004 RMK AO2 SLP173 T01000089 10106 20078 58011
KVDF 
22nm SE 
140635Z AUTO 00000KT 10SM CLR 02/02 A3006 RMK AO2
KTPF 
24nm SE 
140635Z AUTO 19006KT 10SM 12/10 A3005 RMK AO2
KZPH 
26nm E 
140635Z AUTO 00000KT 10SM CLR 03/01 A3005 RMK AO2 T00250014
KMCF 
27nm S 
140556Z 20008KT 10SM CLR 13/10 A3004 RMK AO2A SLP176
TAF
KTPA 
20nm S 
140530Z 1406/1512 VRB03KT P6SM SCT250 FM141200 22003KT P6SM BKN050 FM141600 23009KT P6SM BKN050 FM150200 20003KT P6SM OVC050
KPIE 
22nm S 
140530Z 1406/1506 20004KT P6SM SCT250 FM141200 23006KT P6SM BKN050 FM141600 23010KT P6SM BKN050 FM150200 20004KT P6SM OVC050
NOTAMs
Click for the latest NOTAMs
NOTAMs are issued by the DoD/FAA and will open in a separate window not controlled by AirNav.

 

 
 

Would you like to see your business listed on this page?

 If your business provides an interesting product or service to pilots, flight crews, aircraft, or users of the Hidden Lake Airport, you should consider listing it here.  To start the listing process, click on the button below
 
Add a business
 

Other Pages about Hidden Lake Airport

www.hiddenlakeairport.com
 
Update a link
 
Copyright © AirNav, LLC. All rights reserved. Privacy Policy  Contact